Flag for Germany Weather past 2 weeks in Peine, Lower Saxony, Germany

Now
54 °F

Cool.


Feels Like: 53 °F
Forecast: 42 / 68 °F
Wind: 3 mph from West

Location: Celle Airport

Current Time: May 23, 2015 at 8:13:30 AM

Latest Report: May 23, 2015 at 7:20 AM


Visibility: 6 mi

Pressure: 30.12 "Hg

Humidity: 82%

Dew point: 48 °F

Location of PeineLocation

Historic Weather in Peine — Graph

°F

Peine temperature yesterday

Maximum temperature yesterday: 66 °F (at 2:20 PM)
Minimum temperature yesterday: 43 °F (at 5:20 AM)
Average temperature yesterday: 57 °F

Past Weeks' High & Low Weather Summary

 TemperatureHumidityPressure
High79 °F (May 12, 1:20 PM)100% (May 8, 6:20 AM)30.36 "Hg (May 8, 6:20 AM)
Low36 °F (May 15, 5:20 AM)32% (May 20, 4:20 PM)29.59 "Hg (May 18, 9:20 PM)
Average54 °F65%30.04 "Hg
* Reported May 8 6:20 AM — May 23 6:20 AM, Peine, Weather by CustomWeather, © 2015

Note: Actual official high and low records may vary slightly from our data, if they occured in-between our weather recording intervals... More about our weather records

Advertising

Peine weather history for previous 24 hours

 ConditionsComfort  
Time TempWeatherWind HumidityBarometerVisibility
6:20 AM
Sat, May 23
54 °FCool.2 mph82%30.12 "Hg6 mi
5:20 AM54 °FCool.2 mph82%30.12 "HgN/A
4:20 AM54 °FCool.1 mph82%30.12 "HgN/A
3:20 AM54 °FCool.1 mph82%30.15 "HgN/A
2:20 AM55 °FCool.1 mph77%30.15 "HgN/A
1:20 AM55 °FCool.1 mph77%30.18 "HgN/A
12:20 AM55 °FCool.1 mph72%30.18 "HgN/A
11:20 PM
Fri, May 22
55 °FCool.1 mph72%30.18 "HgN/A
10:20 PM55 °FCool.1 mph72%30.18 "HgN/A
9:20 PM61 °FRefreshingly cool.2 mph55%30.18 "HgN/A
8:20 PM64 °FMild.3 mph49%30.18 "HgN/A
7:20 PM64 °FPartly sunny.6 mph49%30.18 "HgN/A
6:20 PM66 °FPartly sunny.6 mph46%30.18 "HgN/A
5:20 PM66 °FBroken clouds.8 mph43%30.21 "HgN/A
4:20 PM66 °FBroken clouds.8 mph43%30.21 "HgN/A
3:20 PM66 °FBroken clouds.8 mph43%30.24 "HgN/A
2:20 PM66 °FScattered clouds.5 mph43%30.24 "HgN/A
1:20 PM63 °FBroken clouds.7 mph45%30.27 "HgN/A
12:20 PM63 °FScattered clouds.7 mph49%30.27 "HgN/A
11:56 AM63 °FScattered clouds.7 mph49%30.30 "HgN/A
11:20 AM63 °FScattered clouds.7 mph52%30.30 "HgN/A
10:20 AM57 °FBroken clouds.5 mph59%30.30 "HgN/A
9:20 AM55 °FPartly sunny.6 mph67%30.33 "HgN/A
8:50 AM54 °FPartly sunny.3 mph72%30.33 "HgN/A
8:20 AM52 °FPartly sunny.2 mph77%30.33 "HgN/A
Weather by CustomWeather, © 2015

See weather overviewHow to use our weather pages